Regional Weather Roundup
Issued by NWS

Home | Current Version | Previous Version | Text Only | Print | Product List | Glossary Off
Versions: 1 2 3 4 5 6 7 8 9 10 11 12 13 14 15 16 17 18 19 20 21 22 23 24 25 26 27 28 29 30 31 32 33 34 35 36 37 38 39 40 41 42 43 44 45 46 47 48 49 50

000
ASUS43 KDTX 021610
RWRMI
MICHIGAN HOURLY REGIONAL WEATHER ROUNDUP
NATIONAL WEATHER SERVICE DETROIT/PONTIAC MI
1200 PM EDT MON MAY 02 2016

NOTE: "FAIR" INDICATES FEW OR NO CLOUDS BELOW 12,000 FEET WITH NO
SIGNIFICANT WEATHER AND/OR OBSTRUCTION TO VISIBILITY.

MIZ047>049-052>055-059>063-066>070-074>076-081>083-021700-
SOUTHEAST LOWER MICHIGAN

CITY           SKY/WX    TMP DP  RH WIND       PRES   REMARKS
ADRIAN         CLOUDY    49  46  90 NE9       30.01F
ALMA           CLOUDY    49  42  76 NE12      30.07R
ANN ARBOR      CLOUDY    49  46  90 NE7       30.01F
BAD AXE        MOSUNNY   50  40  67 NE12G18   30.05F
CARO           CLOUDY    50  41  73 E6        30.05S
DETROIT CITY   CLOUDY    51  44  77 NE8       30.04R
DETROIT        CLOUDY    50  46  86 N9        30.02F
FLINT          CLOUDY    51  43  74 NE7       30.05S
GROSSE ILE     CLOUDY    50  46  87 NE9       30.00F FOG
HILLSDALE      CLOUDY    47  46  95 MISG      30.00F
HOWELL         CLOUDY    46  45  96 NE8       30.03S

CITY           SKY/WX    TMP DP  RH WIND       PRES   REMARKS
JACKSON        CLOUDY    48  45  89 NE8       30.01F
LAMBERTVILLE   CLOUDY    52  47  83 NE6       30.00F
LANSING        CLOUDY    48  43  82 NE10      30.05S
LAPEER         CLOUDY    47  42  84 NE6       30.05R
MASON          CLOUDY    45  44  95 NE9       30.03F
MONROE         CLOUDY    50  47  90 N10       30.00F
MT. CLEMENS    CLOUDY    49  48  93 NE8       30.03R
PONTIAC        CLOUDY    47  43  86 NE10      30.02S
PORT HOPE        N/A     44  39  82 NE5       30.05S
PORT HURON     CLOUDY    48  43  81 N7        30.04S
TRI CITIES     PTSUNNY   52  41  66 NE16      30.05F
MIDLAND        CLOUDY    52  40  64 E12G17    30.06F
TROY           CLOUDY    50  46  86 NE12      30.04S
SAGINAW HB     CLOUDY    50  43  76 NE13      30.04F
$$
MIZ043>046-050>051-056>058-064>065-071>073-077>080-021700-
SOUTHWEST LOWER MICHIGAN

CITY           SKY/WX    TMP DP  RH WIND       PRES   REMARKS
BATTLE CREEK   CLOUDY    49  43  80 NE8       30.02F
BENTON HARBOR  PTSUNNY   53  44  71 N8        30.03S
BIG RAPIDS     SUNNY     56  30  37 NE10G22   30.03S
COLDWATER      CLOUDY    49  46  90 NE9       30.01S
FREMONT        FAIR      58  29  32 E13G18    30.04R
HOLLAND        MOSUNNY   55  40  56 E10       30.05S
GRAND RAPIDS   PTSUNNY   53  42  66 NE8       30.04F
IONIA          CLOUDY    48  40  73 NE7       30.04F
KALAMAZOO      CLOUDY    52  43  71 VRB5      30.03F
LUDINGTON      SUNNY     57  37  46 NW7       30.05S
MARSHALL       CLOUDY    47  44  90 NE7       30.02F
MOUNT PLEASANT MOSUNNY   55  40  58 NE9G18    30.03F
MUSKEGON       MOSUNNY   60  34  37 E9        30.05S
SOUTH HAVEN    PTSUNNY   56  43  61 E9        30.04S
$$
MIZ016>042-021700-
NORTHERN LOWER MICHIGAN

CITY           SKY/WX    TMP DP  RH WIND       PRES   REMARKS
ALPENA         CLOUDY    57  36  45 N7        30.06F
BEAVER ISLAND  SUNNY     56  37  49 NW3       30.07F
BELLAIRE       SUNNY     59  30  33 NE5       30.05F
CADILLAC       MOSUNNY   58  33  39 NE9       30.03F
CHARLEVOIX     SUNNY     51  37  58 NW7       30.10F
FRANKFORT      SUNNY     56  38  50 N7        30.06F
GAYLORD        MOSUNNY   58  28  32 NE8       30.04F
GRAYLING       PTSUNNY   61  32  33 E9        30.05S
HARBOR SPRINGS SUNNY     48  35  60 SW7       30.07F
HOUGHTON LAKE  CLOUDY    56  28  34 E12G20    30.05F
MANISTEE       SUNNY     54  36  50 NW13      30.06F
OSCODA         CLOUDY    52  38  58 NE8       30.06F
PELLSTON       SUNNY     60  31  33 NW6       30.06F
ROGERS CITY    SUNNY     51  34  52 N8        30.07F
TRAVERSE CITY  MOSUNNY   55  36  48 NE7       30.06F
$$
MIZ007>008-015-021700-
EASTERN UPPER MICHIGAN

CITY           SKY/WX    TMP DP  RH WIND       PRES   REMARKS
KINROSS          N/A     57  28  33 N12       30.05F
MACKINAC ISLAN MOSUNNY   54  32  44 CALM      30.06F
NEWBERRY       PTSUNNY   58  32  38 NW8       30.06F
S. S. MARIE    PTSUNNY   59  34  39 NW8       30.05F
MUNISING         N/A     45  37  73 N10       30.11S
$$
MIZ004>006-011>014-085-021700-
CENTRAL UPPER MICHIGAN

CITY           SKY/WX    TMP DP  RH WIND       PRES   REMARKS
MANISTIQUE     SUNNY     60  32  34 NW7       30.06F
ESCANABA       SUNNY     59  34  38 E10       30.07F
MENOMINEE      SUNNY     55  36  47 E10       30.08S
SAWYER-GWINN   MOSUNNY   52  32  46 NE17G23   30.12S
$$
MIZ001>003-009>011-084-021700-
WESTERN UPPER MICHIGAN

CITY           SKY/WX    TMP DP  RH WIND       PRES   REMARKS
IRON MOUNTAIN  SUNNY     58  28  32 VRB6      30.07F
HOUGHTON       PTSUNNY   55  30  38 W6        30.10F
COPPER HARBOR    N/A    N/A N/A N/A MISG      30.11F
IRONWOOD         N/A     55  34  44 S6        30.07F
$$

ABBREVIATIONS USED IN REMARKS
   TC - TEMPERATURE IN CELSIUS
  WCI - WIND CHILL INDEX
   HX - HEAT INDEX
  VSB - VISIBILITY




USA.gov is the U.S. government's official web portal to all federal, state and local government web resources and services.